Date String (YYYY-MM-DD hh:mm:ss) UTC,Instrument flags,Ambient pressure (hPa),Sample flow (lpm),Bypass flow (lpm),Sample temperature (°C),Ambient temperature (°C),ASC tube jacket temperature (°C),LED temperature (°C),Box temperature (°C),Sample RH (%),Span deviation,Mass concentration (μg/m³),Mass concentration (μg/m³),Mass concentration (μg/m³)
DateTimeUTC,F1_M11,P_M11,Q1_M11,Q2_M11,T1_M11,T2_M11,T3_M11,T4_M11,T5_M11,U1_M11,ZSPAN_M11,X0_M11,X2_M11,X1_M11
2023-05-18 07:00:00,,0831.9,4.98,0.00,29.6,28.1,00.0,38.0,31.2,28.1,0000.0,0008.98,0005.08,0004.27
2023-05-18 07:01:00,,0831.8,5.00,0.00,29.6,28.1,00.0,38.0,31.2,28.1,0000.0,0008.86,0005.04,0004.27
2023-05-18 07:02:00,,0831.8,5.01,0.00,29.6,28.1,00.0,38.0,31.2,28.5,0000.0,0008.74,0005.02,0004.29
2023-05-18 07:03:00,,0831.8,5.00,0.00,29.6,28.1,00.0,38.0,31.2,28.5,0000.7,0008.82,0005.06,0004.31
2023-05-18 07:04:00,,0832.0,4.98,0.00,29.6,28.1,00.0,38.0,31.2,28.4,0000.0,0008.75,0005.04,0004.31
2023-05-18 07:05:00,,0832.3,5.01,0.00,29.6,28.1,00.0,38.0,31.2,28.1,0000.0,0008.80,0005.07,0004.32
2023-05-18 07:06:00,,0832.2,5.01,0.00,29.6,28.0,00.0,38.0,31.2,27.9,0000.0,0008.66,0005.10,0004.31
2023-05-18 07:07:00,,0832.3,4.99,0.00,29.6,28.1,00.0,38.0,31.2,27.9,0000.0,0008.54,0005.09,0004.29
2023-05-18 07:08:00,,0832.2,4.99,0.00,29.7,28.1,00.0,38.0,31.2,28.0,0000.0,0008.51,0005.08,0004.29
2023-05-18 07:09:00,,0832.3,5.01,0.00,29.7,28.1,00.0,38.0,31.2,28.2,0000.0,0008.66,0005.14,0004.30
2023-05-18 07:10:00,,0832.3,4.99,0.00,29.7,28.1,00.0,38.0,31.3,28.0,0000.0,0008.68,0005.15,0004.30
2023-05-18 07:11:00,,0831.9,5.00,0.00,29.7,28.1,00.0,38.0,31.3,27.9,0000.0,0008.69,0005.12,0004.30
2023-05-18 07:12:00,,0831.7,5.00,0.00,29.7,28.1,00.0,38.0,31.2,28.2,0000.0,0008.90,0005.17,0004.31
2023-05-18 07:13:00,,0831.7,5.00,0.00,29.7,28.1,00.0,38.0,31.3,28.5,0000.0,0009.03,0005.19,0004.30
2023-05-18 07:14:00,,0831.7,4.99,0.00,29.7,28.1,00.0,38.0,31.3,28.6,0000.0,0008.92,0005.14,0004.29
2023-05-18 07:15:00,,0831.6,5.01,0.00,29.7,28.1,00.0,38.0,31.3,28.6,0000.0,0008.95,0005.12,0004.29
2023-05-18 07:16:00,,0831.6,5.00,0.00,29.7,28.1,00.0,38.1,31.3,28.2,0000.0,0009.01,0005.12,0004.29
2023-05-18 07:17:00,,0831.6,5.00,0.00,29.7,28.1,00.0,38.1,31.3,28.3,0000.0,0008.89,0005.08,0004.29
2023-05-18 07:18:00,,0831.6,5.01,0.00,29.7,28.1,00.0,38.1,31.3,28.3,0000.0,0008.92,0005.09,0004.29
2023-05-18 07:19:00,,0831.5,5.00,0.00,29.7,28.1,00.0,38.1,31.3,28.4,0000.0,0008.88,0005.06,0004.28
2023-05-18 07:20:00,,0831.6,5.00,0.00,29.7,28.1,00.0,38.1,31.3,28.0,0000.0,0008.77,0005.01,0004.27
2023-05-18 07:21:00,,0831.5,4.99,0.00,29.7,28.1,00.0,38.1,31.3,27.7,0000.0,0008.78,0005.00,0004.26
2023-05-18 07:22:00,,0831.5,5.02,0.00,29.7,28.1,00.0,38.1,31.2,27.4,0000.0,0008.89,0005.04,0004.25
2023-05-18 07:23:00,,0831.5,5.01,0.00,29.7,28.1,00.0,38.1,31.2,27.2,0000.0,0008.77,0005.03,0004.25
2023-05-18 07:24:00,,0831.5,4.99,0.00,29.7,28.1,00.0,38.1,31.2,27.4,0000.0,0008.71,0005.02,0004.24
2023-05-18 07:25:00,,0831.5,5.01,0.00,29.7,28.1,00.0,38.1,31.3,27.8,0000.0,0008.99,0005.00,0004.24
2023-05-18 07:26:00,,0831.5,5.00,0.00,29.7,28.1,00.0,38.1,31.3,28.1,0000.0,0009.19,0005.04,0004.26
2023-05-18 07:27:00,,0831.5,4.99,0.00,29.7,28.1,00.0,38.1,31.2,28.2,0000.0,0009.12,0005.03,0004.28
2023-05-18 07:28:00,,0831.4,4.99,0.00,29.7,28.1,00.0,38.1,31.2,28.3,0000.0,0009.32,0005.09,0004.29
2023-05-18 07:29:00,,0831.5,5.02,0.00,29.7,28.1,00.0,38.1,31.3,28.2,0000.0,0009.31,0005.09,0004.31
2023-05-18 07:30:00,,0831.4,5.01,0.00,29.7,28.1,00.0,38.1,31.3,28.1,0000.0,0009.29,0005.10,0004.34
2023-05-18 07:31:00,,0831.5,4.99,0.00,29.7,28.1,00.0,38.1,31.3,27.6,0000.0,0009.32,0005.13,0004.34
2023-05-18 07:32:00,,0831.5,5.00,0.00,29.7,28.1,00.0,38.1,31.3,27.4,0000.0,0009.26,0005.11,0004.35
2023-05-18 07:33:00,,0831.5,5.00,0.00,29.7,28.1,00.0,38.1,31.2,27.7,0000.0,0009.03,0005.06,0004.37
2023-05-18 07:34:00,,0831.5,5.01,0.00,29.7,28.0,00.0,38.1,31.2,28.0,0000.0,0008.97,0005.04,0004.38
2023-05-18 07:35:00,,0831.5,5.00,0.00,29.7,28.0,00.0,38.1,31.2,28.0,0000.0,0009.07,0005.08,0004.40
2023-05-18 07:36:00,,0831.5,5.00,0.00,29.7,28.0,00.0,38.1,31.2,28.0,0000.0,0008.87,0005.14,0004.42
2023-05-18 07:37:00,,0831.5,4.99,0.00,29.7,28.0,00.0,38.1,31.2,27.7,0000.0,0008.65,0005.13,0004.41
2023-05-18 07:38:00,,0831.5,5.00,0.00,29.7,28.0,00.0,38.1,31.2,27.5,0000.0,0008.59,0005.10,0004.40
2023-05-18 07:39:00,,0831.4,5.01,0.00,29.7,28.0,00.0,38.1,31.2,27.5,0000.0,0008.49,0005.06,0004.39
2023-05-18 07:40:00,,0831.4,5.01,0.00,29.7,28.0,00.0,38.1,31.2,27.6,0000.0,0008.44,0005.05,0004.39
2023-05-18 07:41:00,,0831.5,4.98,0.00,29.7,28.0,00.0,38.1,31.2,27.6,0000.0,0008.50,0005.06,0004.39
2023-05-18 07:42:00,,0831.4,5.01,0.00,29.7,28.1,00.0,38.1,31.2,27.7,0000.0,0008.48,0005.07,0004.42
2023-05-18 07:43:00,,0831.5,5.02,0.00,29.7,28.1,00.0,38.1,31.2,27.8,0000.0,0008.50,0005.09,0004.44
2023-05-18 07:44:00,,0831.5,4.99,0.00,29.7,28.1,00.0,38.1,31.3,27.8,0000.0,0008.70,0005.14,0004.45
2023-05-18 07:45:00,,0831.5,4.99,0.00,29.7,28.1,00.0,38.1,31.3,27.9,0000.0,0008.86,0005.18,0004.45
2023-05-18 07:46:00,,0831.4,5.00,0.00,29.7,28.1,00.0,38.1,31.3,27.9,0000.0,0008.84,0005.17,0004.45
2023-05-18 07:47:00,,0831.5,5.00,0.00,29.7,28.1,00.0,38.1,31.3,27.7,0000.0,0008.71,0005.11,0004.45
2023-05-18 07:48:00,,0831.5,5.00,0.00,29.7,28.1,00.0,38.1,31.3,27.6,0000.0,0008.75,0005.12,0004.45
2023-05-18 07:49:00,,0831.4,5.00,0.00,29.7,28.1,00.0,38.1,31.3,27.5,0000.0,0008.96,0005.19,0004.45
2023-05-18 07:50:00,,0831.4,5.01,0.00,29.7,28.1,00.0,38.1,31.3,27.5,0000.0,0008.91,0005.19,0004.46
2023-05-18 07:51:00,,0831.4,4.99,0.00,29.7,28.1,00.0,38.1,31.3,27.5,0000.0,0008.96,0005.22,0004.45
2023-05-18 07:52:00,,0831.4,5.00,0.00,29.7,28.1,00.0,38.1,31.3,27.4,0000.0,0009.06,0005.24,0004.44
2023-05-18 07:53:00,,0831.5,5.01,0.00,29.7,28.1,00.0,38.1,31.3,27.6,0000.0,0009.21,0005.25,0004.43
2023-05-18 07:54:00,,0831.5,4.99,0.00,29.7,28.1,00.0,38.1,31.3,27.8,0000.0,0009.14,0005.24,0004.42
2023-05-18 07:55:00,,0831.4,4.99,0.00,29.7,28.1,00.0,38.1,31.3,27.6,0000.0,0009.08,0005.25,0004.41
2023-05-18 07:56:00,,0831.5,5.02,0.00,29.7,28.1,00.0,38.1,31.3,27.5,0000.0,0008.97,0005.24,0004.41
2023-05-18 07:57:00,,0831.5,4.99,0.00,29.7,28.1,00.0,38.1,31.3,27.3,0001.9,0009.14,0005.27,0004.40
2023-05-18 07:58:00,,0831.5,4.99,0.00,29.7,28.1,00.0,38.1,31.3,27.0,0004.6,0009.28,0005.27,0004.39
2023-05-18 07:59:00,,0831.5,5.01,0.00,29.8,28.1,00.0,38.1,31.3,26.9,0004.8,0009.31,0005.29,0004.40
